Weather in Gumarino

Russia / Republic of Karelia     62°57′49″N   33°07′01″E
temp.,
°C
wind,
m/s
gust,
m/s
humid.,
%
clouds,
%
prec.,
mm/h
press.,
hPa
HPBL,
m
31 july, sat
sat3100:00+12ssw279131 0.1 996139
03:00+11s269265 0.1 996133
06:00+13s158626 0.0 994145
09:00+18ssw2464100 0.1 994676
12:00+20ssw235622 0.8 9931409
15:00+19sw226612 2.8 9941089
18:00+19w237657 1.2 995755
21:00+15wsw24925 2.6 99792
1 august, sun
sun100:00+13wsw23955 0.0 99860
03:00+12sw25965 0.0 999109
06:00+13sw279460 0.0 999185
09:00+17ssw357428 0.0 1000424
12:00+22ssw454389 0.0 9992220
15:00+21ssw565995 0.3 9981235
18:00+18sw4883100 2.2 999778
21:00+14ssw119397 2.9 99814
2 august, mon
mon200:00+13ssw269758 0.0 999130
03:00+12sw22965 0.0 99945
06:00+13ssw389613 0.0 1000268
09:00+15sw4888100 0.0 1001611
12:00+16sw4886100 0.2 1002810
15:00+18sw3770100 0.2 10021155
18:00+20s3555100 0.0 1001863
21:00+16wsw2473100 0.0 100194
3 august, tue
tue300:00+14w1178100 0.0 100010
03:00+13se1188100 0.2 99912
06:00+13nnw2498100 4.3 997135
09:00+14nnw2593100 5.3 997295
12:00+15nnw2589100 0.4 998237
15:00+15w139134 0.7 999177
18:00+17w24828 1.2 1000672
21:00+13wnw499512 2.6 1001389
4 august, wed
wed400:00+11wnw4998100 0.0 1004361
03:00+10nw4795100 0.1 1006575
06:00+9wnw3693100 0.1 1008704
09:00+9nw4788100 0.1 1010771
12:00+10nw467198 0.1 1012966
15:00+13nnw456068 0.1 10141263
18:00+13n34562 0.0 10151014
21:00+9ese117760 0.0 101713